This demonstration page uses our WeatherBlox Daily Observations layout. Learn more.

40.92945, -100.16068

Hourly Observations for December 12, 2018

Temp ( °F °C ) Dew Point ( °F °C ) Humidity (%) Winds ( mph kmh ) Pressure ( in mb ) Visibility ( mi km ) Precip ( " mm )
12:15 am 00:15 Clear 26 -3.3 23 -4.9 89 89 W 10 17 30.06 1018 10 16.09344 0 0
12:35 am 00:35 Clear 26 -3.4 22 -5.3 87 87 WNW 7 11 30.06 1018 10 16.09344 0 0
12:55 am 00:55 Clear 25 -4.1 22 -5.6 89 89 WSW 7 11 30.06 1018 10 16.09344 0 0
1:15 am 01:15 Clear 25 -3.9 22 -5.4 89 89 W 7 11 30.06 1018 10 16.09344 0 0
1:35 am 01:35 Clear 25 -4.1 22 -5.4 91 91 W 7 11 30.03 1017 10 16.09344 0 0
1:55 am 01:55 Clear 24 -4.7 21 -6.2 89 89 WSW 6 9 30.03 1017 10 16.09344 0 0
2:15 am 02:15 Clear 23 -5 20 -6.6 89 89 WNW 6 9 30.03 1017 10 16.09344 0 0
2:35 am 02:35 Clear 22 -5.8 19 -7.2 90 90 Calm 30.03 1017 10 16.09344 0 0
2:55 am 02:55 Clear 20 -6.4 18 -7.6 91 91 N 3 6 30.06 1018 10 16.09344 0 0
3:15 am 03:15 Clear 20 -6.6 18 -7.7 92 92 NW 5 7 30.06 1018 10 16.09344 0 0
3:35 am 03:35 Clear 19 -7.5 16 -9 89 89 NW 3 6 30.06 1018 10 16.09344 0 0
3:55 am 03:55 Clear 19 -7.3 17 -8.6 91 91 NW 3 6 30.03 1017 10 16.09344 0 0
4:15 am 04:15 Clear 19 -7.4 16 -8.8 90 90 Calm 30.03 1017 10 16.09344 0 0
4:35 am 04:35 Clear 19 -7 17 -8.1 92 92 WNW 3 6 30.03 1017 10 16.09344 0 0
4:55 am 04:55 Clear 17 -8.2 15 -9.7 89 89 NW 3 6 30 1016 10 16.09344 0 0
5:15 am 05:15 Clear 18 -7.8 16 -9 91 91 Calm 30 1016 10 16.09344 0 0
5:35 am 05:35 Clear 18 -7.9 16 -9.1 91 91 Calm 30 1016 10 16.09344 0 0
5:55 am 05:55 Clear 18 -7.8 15 -9.2 90 90 Calm 30 1016 10 16.09344 0 0
6:15 am 06:15 Clear 18 -7.7 16 -8.9 91 91 Calm 29.97 1015 10 16.09344 0 0
6:35 am 06:35 Clear 19 -7.5 16 -8.7 91 91 Calm 29.97 1015 7 11.265408 0 0
6:55 am 06:55 Clear 18 -7.8 16 -9.1 91 91 Calm 29.97 1015 10 16.09344 0 0
7:15 am 07:15 Clear 17 -8.1 15 -9.5 90 90 SW 3 6 29.97 1015 10 16.09344 0 0
7:35 am 07:35 Clear 21 -5.9 19 -7.5 89 89 Calm 29.94 1014 10 16.09344 0 0
7:55 am 07:55 Sunny 18 -8 14 -9.9 86 86 Calm 29.97 1015 10 16.09344 0 0
8:15 am 08:15 Sunny 30 -1 24 -4.7 76 76 W 8 13 29.85 1011 10 16.09344 0 0
8:35 am 08:35 Sunny 33 0.5 23 -5 67 67 W 5 7 29.85 1011 10 16.09344 0 0
8:55 am 08:55 Sunny 35 1.4 25 -4 68 68 SW 10 17 29.83 1010 10 16.09344 0 0
9:15 am 09:15 Sunny 37 2.6 26 -3.6 64 64 SW 17 28 29.8 1009 10 16.09344 0 0
9:35 am 09:35 Sunny 38 3.2 26 -3.6 61 61 SW 18 30 29.8 1009 10 16.09344 0 0
9:55 am 09:55 Sunny 38 3.2 26 -3.5 62 62 SW 20 31 29.8 1009 10 16.09344 0 0
10:15 am 10:15 Sunny 38 3.2 26 -3.5 62 62 SW 12 19 29.8 1009 10 16.09344 0 0
10:35 am 10:35 Sunny 38 3.3 26 -3.5 61 61 SW 15 24 29.8 1009 10 16.09344 0 0
10:55 am 10:55 Sunny 38 3.4 26 -3.5 61 61 SSW 10 17 29.8 1009 10 16.09344 0 0
11:15 am 11:15 Sunny 38 3.1 26 -3.6 62 62 SW 14 22 29.8 1009 10 16.09344 0 0
11:35 am 11:35 Sunny 37 3 26 -3.2 64 64 SW 9 15 29.8 1009 10 16.09344 0 0
11:55 am 11:55 Sunny 38 3.1 27 -2.9 65 65 WSW 8 13 29.77 1008 10 16.09344 0 0
12:15 pm 12:15 Sunny 38 3.5 27 -2.9 63 63 SSW 6 9 29.77 1008 10 16.09344 0 0
12:35 pm 12:35 Sunny 39 3.7 28 -2.5 64 64 SW 6 9 29.77 1008 10 16.09344 0 0
12:55 pm 12:55 Sunny 39 4 28 -2.4 63 63 S 12 19 29.74 1007 10 16.09344 0 0
1:15 pm 13:15 Sunny 38 3.6 28 -2.3 66 66 SSW 9 15 29.77 1008 10 16.09344 0 0
1:35 pm 13:35 Sunny 39 4 28 -2 65 65 SSW 6 9 29.74 1007 10 16.09344 0 0
1:55 pm 13:55 Sunny 40 4.5 28 -2.2 62 62 SSW 9 15 29.74 1007 10 16.09344 0 0
2:15 pm 14:15 Sunny 40 4.7 28 -2 62 62 SW 8 13 29.71 1006 10 16.09344 0 0
2:35 pm 14:35 Sunny 40 4.7 29 -1.9 63 63 W 5 7 29.71 1006 10 16.09344 0 0
2:55 pm 14:55 Sunny 41 4.9 28 -2 61 61 WSW 5 7 29.71 1006 10 16.09344 0 0
3:15 pm 15:15 Sunny 41 5 29 -1.6 63 63 WSW 5 7 29.71 1006 10 16.09344 0 0
3:35 pm 15:35 Sunny 41 5 29 -1.5 63 63 SW 5 7 29.71 1006 10 16.09344 0 0
3:55 pm 15:55 Sunny 41 5 29 -1.4 64 64 SW 6 9 29.74 1007 10 16.09344 0 0
4:15 pm 16:15 Sunny 40 4.3 29 -1.5 66 66 WSW 6 9 29.74 1007 10 16.09344 0 0
4:35 pm 16:35 Sunny 38 3.5 30 -1.3 71 71 Calm 29.77 1008 10 16.09344 0 0
4:55 pm 16:55 Sunny 38 3.4 29 -1.6 70 70 Calm 29.77 1008 10 16.09344 0 0
5:15 pm 17:15 Clear 37 3 29 -1.9 71 71 Calm 29.77 1008 10 16.09344 0 0
5:35 pm 17:35 Clear 37 2.5 28 -2 73 73 Calm 29.77 1008 10 16.09344 0 0
5:55 pm 17:55 Clear 33 0.4 28 -2.5 81 81 Calm 29.8 1009 10 16.09344 0 0
6:15 pm 18:15 Clear 31 -0.5 27 -3 83 83 Calm 29.8 1009 10 16.09344 0 0
6:35 pm 18:35 Clear 33 0.8 28 -2.1 81 81 WSW 5 7 29.8 1009 10 16.09344 0 0
6:55 pm 18:55 Clear 32 0 27 -3 80 80 W 6 9 29.8 1009 10 16.09344 0 0
7:15 pm 19:15 Clear 31 -0.8 26 -3.5 82 82 WNW 6 9 29.8 1009 10 16.09344 0 0
7:35 pm 19:35 Clear 31 -0.3 26 -3.4 80 80 WNW 7 11 29.8 1009 10 16.09344 0 0
7:55 pm 19:55 Clear 33 0.8 27 -2.6 78 78 WNW 6 9 29.8 1009 10 16.09344 0 0
8:15 pm 20:15 Clear 32 0 26 -3.5 78 78 W 6 9 29.8 1009 10 16.09344 0 0
8:35 pm 20:35 Clear 31 -0.8 26 -3.5 82 82 W 7 11 29.83 1010 10 16.09344 0 0
8:55 pm 20:55 Clear 32 -0.2 26 -3.5 79 79 W 8 13 29.83 1010 10 16.09344 0 0
9:15 pm 21:15 Clear 32 0 26 -3.3 79 79 W 6 9 29.83 1010 10 16.09344 0 0
9:35 pm 21:35 Clear 36 2 28 -2.2 74 74 WNW 13 20 29.8 1009 10 16.09344 0 0
9:55 pm 21:55 Clear 37 2.7 29 -1.5 74 74 WNW 15 24 29.83 1010 10 16.09344 0 0
10:15 pm 22:15 Clear 37 2.5 30 -1.1 77 77 NW 12 19 29.83 1010 10 16.09344 0 0
10:35 pm 22:35 Clear 35 1.5 29 -1.4 81 81 NW 10 17 29.83 1010 10 16.09344 0 0
10:55 pm 22:55 Clear 36 2.1 31 -0.3 84 84 NW 13 20 29.85 1011 10 16.09344 0 0
11:15 pm 23:15 Clear 33 0.4 29 -1.4 88 88 NW 14 22 29.88 1012 10 16.09344 0 0
11:35 pm 23:35 Clear 37 2.7 32 0 83 83 NW 20 31 29.85 1011 10 16.09344 0 0
11:55 pm 23:55 Mostly Cloudy 38 3.1 33 0.5 83 83 NNW 20 31 29.88 1012 10 16.09344 0 0

Powered by AerisWeather